WY1U-1 Weather Reports


time (UTC)temp
C
wind
direction
speed
KPH
gust
KPH
rain 1hr
cm
rain 24hr
cm
rain mn
cm
humidity
%
barometer
mb
20260508230150 15 292 3.2 9.7 0.00 0.03 0.03 49 1011.4
20260508210150 14 265 9.7 19.3 0.00 0.03 0.03 55 1011.2
20260508200150 12 248 6.4 14.5 0.03 0.03 0.03 73 1011.7
20260508190150 15 309 3.2 12.9 0.00 0.00 0.00 47 1010.9
20260508180150 14 294 9.7 25.7 0.00 0.00 0.00 45 1011.1
20260508170150 15 291 11.3 25.7 0.00 0.00 0.00 41 1010.8
20260508160150 15 289 6.4 19.3 0.00 0.00 0.00 40 1011.2
20260508150226 14 293 3.2 12.9 0.00 0.00 0.00 47 1011.5
20260508150150 14 293 3.2 12.9 0.00 0.00 0.00 47 1011.5
20260508140150 13 219 1.6 6.4 0.00 0.00 0.00 50 1011.9
20260508130150 12 280 6.4 16.1 0.00 0.00 0.00 55 1012.4
20260508110151 9 276 1.6 6.4 0.00 0.00 0.00 65 1012.2
20260508100151 9 0 0.0 0.0 0.00 0.00 0.00 61 1011.4
20260508090150 10 290 4.8 12.9 0.00 0.08 0.00 56 1011.3
20260508080150 9 300 1.6 11.3 0.00 0.18 0.00 57 1011.0
20260508073149 9 292 1.6 8.0 0.00 0.23 0.00 61 1010.9
20260508070151 8 295 3.2 9.7 0.00 0.36 0.00 72 1011.0
20260508063149 7 299 3.2 6.4 0.00 0.46 0.00 77 1010.2
20260508060149 7 0 0.0 0.0 0.00 0.51 0.00 84 1009.7
20260508053149 7 0 0.0 0.0 0.00 0.51 0.00 85 1009.8
20260508050150 7 0 0.0 0.0 0.00 0.51 0.00 83 1009.8
20260508043149 7 0 0.0 0.0 0.00 0.51 0.00 82 1010.0
20260508040149 7 0 0.0 0.0 0.00 0.51 0.00 81 1010.2
20260508033149 8 0 0.0 0.0 0.00 0.51 0.51 77 1010.2
20260508030222 8 0 0.0 0.0 0.00 0.51 0.51 74 1010.2
20260508030149 8 0 0.0 0.0 0.00 0.51 0.51 74 1010.2
20260508020149 10 0 0.0 0.0 0.00 0.51 0.51 63 1010.1
20260508013149 11 0 0.0 0.0 0.00 0.51 0.51 57 1009.7
20260508010150 12 0 0.0 0.0 0.00 0.51 0.51 54 1009.7
20260508003149 13 0 0.0 0.0 0.00 0.51 0.51 48 1008.9